[[{"header":{"parameterUnit":"m.s-1","parameterCategory":1,"la1":30.2991,"la2":30.254,"lo1":-89.0895,"lo2":-89.0444,"dy":0.0017,"dx":0.0017,"nx":28,"ny":28,"refTime":"2024-08-02T21:00:00:Z","depth":0,"parameterNumber":2,"parameterNumberName":"U-component_of_WINDS"},"data":[0,0,0,0,0,0,0,0,0,0,0,0,0,0,0,0,0,0,0,0,0,0,0,0,0,0,0,0,0,0,0,0,0,0,0,0,0,0,0,0,0,0,0,0,0,0,0,0,0,0,0,0,0,0,0,0,0,0,3.85,3.8502,0,3.8633,3.8635,3.8636,3.8587,3.8584,3.8581,3.8578,3.8718,3.8724,3.873,0,0,0,0,0,0,0,0,0,0,0,0,0,3.8206,3.8212,3.85,3.8502,3.8503,3.8633,3.8635,3.8637,3.8587,3.8583,3.858,3.8576,3.8715,3.8723,3.8731,0,0,0,0,0,0,0,0,0,0,0,0,0,3.8336,3.8214,3.85,3.8494,3.8495,3.8633,3.8635,3.8637,3.8588,3.8583,3.8579,3.8575,3.8713,3.8722,3.8732,3.8884,0,0,3.8762,3.8767,0,0,0,0,0,0,0,0,3.8329,3.8347,3.8493,3.8495,3.8496,3.8589,3.8583,3.872,3.8589,3.8553,3.8578,3.8572,3.8679,3.8691,3.8726,3.8891,3.8897,3.8763,3.8769,3.8773,3.8776,0,0,0,0,0,0,0,3.832,3.8341,3.8553,3.8496,3.8497,3.8486,3.85,3.8608,3.864,3.8556,3.8552,3.8569,3.8678,3.8717,3.8729,3.8899,3.8763,3.8772,3.8778,3.8782,3.9196,3.9201,0,0,0,0,0,0,3.831,3.8334,3.8549,3.8557,3.8399,3.8495,3.851,3.8564,3.8638,3.8645,3.8572,3.8566,3.8702,3.8718,3.8734,3.8918,3.8773,3.8782,3.8788,3.9191,3.9197,3.9203,0,0,0,0,0,0,3.8304,3.833,3.8543,3.8445,3.8471,3.8505,3.8565,3.8569,3.8607,3.8651,3.8657,3.8605,3.8699,3.872,3.8847,3.8922,3.8787,3.8796,3.9185,3.9193,3.92,3.9286,0,0,0,0,0,0,3.8296,3.8328,3.8385,3.8446,3.8476,3.8654,3.857,3.8574,3.8623,3.8616,3.8684,3.869,3.8697,3.8833,3.8857,3.8933,3.8804,3.9179,3.9189,3.9198,3.9277,3.9296,3.9312,0,0,0,0,0,3.8285,3.8404,3.8388,3.8414,3.8549,3.8658,3.8675,3.868,3.863,3.8688,3.8717,3.8688,3.8909,3.8846,3.8873,3.8953,3.9174,3.9186,3.9197,3.9269,3.9292,3.9311,0,0,0,0,0,0,3.8352,3.8412,3.8395,3.8537,3.8593,3.8649,3.8723,3.8704,3.8776,3.8766,3.8769,3.8785,3.8916,3.8947,3.8876,3.9105,3.9034,3.9052,3.908,3.9102,3.9119,3.911,3.8812,0,0,0,0,0,3.8383,3.8466,3.8515,3.8636,3.8664,3.8689,3.8737,3.8735,3.8794,3.8817,3.8855,3.8914,3.8996,3.9051,3.9129,3.9281,3.9295,3.9349,3.9366,3.9381,3.9396,3.948,3.9504,3.9241,3.9241,3.924,0,0,3.8449,3.8492,3.8544,3.865,3.8693,3.878,3.8709,3.8804,3.8869,3.8832,3.8954,3.8984,3.905,3.919,3.9254,3.922,3.9472,3.9395,3.9406,3.9414,3.9494,3.9519,3.9541,3.9249,3.9247,3.9246,0,0,3.8613,3.8653,3.8759,3.8803,3.8869,3.8884,3.891,3.897,3.8988,3.911,3.9085,3.9162,3.9304,3.9353,3.9396,3.9578,3.9555,3.9604,3.9696,3.9777,3.9798,3.9817,3.9883,3.9907,3.9619,3.9619,3.9619,0,3.8687,3.8815,3.8816,3.8913,3.8961,3.893,3.9038,3.9081,3.9169,3.9204,3.9164,3.9342,3.9384,3.9536,3.958,3.9616,3.9646,3.9596,3.9795,3.9814,3.9831,3.9894,3.9919,3.9624,3.9624,3.9623,3.9623,0,3.8903,3.8993,3.9071,3.9156,3.9212,3.9314,3.9331,3.9388,3.9382,3.9402,3.9528,3.9578,3.9666,3.9702,3.9697,3.9853,3.983,3.9793,3.9723,3.9861,3.9921,3.9945,3.9632,3.963,3.9629,3.9627,0,0,3.9114,3.9198,3.9226,3.9265,3.9335,3.9405,3.9506,3.9591,3.9641,3.9703,3.9788,3.9909,3.9875,3.9924,3.9924,3.9996,4.0139,3.995,3.9951,3.9984,4.0315,4.0344,4.0372,4.0123,4.0128,4.0132,4.031,0,3.9284,3.946,3.9464,3.9626,3.971,3.9682,3.977,3.9823,3.9845,3.992,3.9944,4.003,3.9978,4.0008,4.0077,4.0106,4.0205,4.0093,4.0205,4.0209,4.019,4.0402,4.0433,4.0599,4.0333,4.0337,4.034,0,3.9507,3.9575,3.9745,3.9803,3.9839,3.9918,3.9996,4.0068,4.0128,4.0139,4.0194,4.0183,4.0288,4.0213,4.0358,4.0282,4.0328,4.0349,4.0356,4.0367,4.0283,4.0421,4.0652,4.0677,4.0377,4.0374,4.0371,0,3.9645,3.9779,3.9898,3.9932,4.0003,4.0059,4.0091,4.0147,4.0198,4.0267,4.0301,4.0382,4.0426,4.049,4.0502,4.0446,4.0648,4.0574,4.0661,4.0661,4.0706,4.0703,4.0948,4.0733,4.0733,4.0733,4.0732,0,3.9835,3.9941,3.9961,4.0035,4.0153,4.0156,4.0273,4.0301,4.0351,4.043,4.0411,4.0486,4.0497,4.0576,4.0586,4.0705,4.0725,4.0738,4.074,4.0741,4.0739,4.0771,4.0761,4.0739,4.0738,4.0736,4.0735,0,4.001,4.0028,4.0156,4.0212,4.0229,4.0313,4.0362,4.0433,4.0452,4.0553,4.0577,4.0608,4.07,4.0718,4.0826,4.0833,4.0975,4.0965,4.0955,4.0954,4.1041,4.1033,4.1316,4.1354,4.1113,4.1116,4.1117,0,4.0131,4.0211,4.0276,4.0327,4.0362,4.0445,4.0497,4.0503,4.0558,4.0633,4.0696,4.0784,4.0856,4.1004,4.1037,4.112,4.1112,4.1206,4.1125,4.1123,4.1115,4.111,4.1119,4.1222,4.1224,4.1226,4.1228,0,4.0344,4.0349,4.0424,4.0502,4.0565,4.0627,4.0686,4.073,4.0744,4.0807,4.09,4.0955,4.1065,4.1155,4.1237,4.1272,4.1254,4.1253,4.1278,4.128,4.1271,4.1278,4.0998,4.1247,4.1245,4.1244,4.1243,4.1242,4.0497,4.0567,4.0624,4.0708,4.0753,4.0808,4.0878,4.0906,4.0983,4.1072,4.1071,4.1173,4.1232,4.1341,4.1381,4.1461,4.1432,4.1468,4.1477,4.1486,4.1495,4.1257,4.1476,4.1476,4.1475,4.1475,4.1475,0,4.071,4.0745,4.0822,4.0905,4.0972,4.0946,4.1011,4.1069,4.1158,4.1214,4.1284,4.1391,4.1477,4.1517,4.1603,4.166,4.1654,4.1682,4.1679,4.1687,4.1515,4.1486,4.1686,4.1686,4.1686,4.1686,4.1686,4.1686,4.0829,4.0947,4.0959,4.1099,4.1133,4.1231,4.1271,4.1322,4.1367,4.1487,4.1558,4.1582,4.1632,4.1721,4.18,4.181,4.1843,4.1876,4.1882,4.1721,4.1699,4.1679,4.1651,4.1882,4.1883,4.2047,4.2048,4.2049]},{"header":{"parameterUnit":"m.s-1","parameterCategory":1,"la1":30.2991,"la2":30.254,"lo1":-89.0895,"lo2":-89.0444,"dy":0.0017,"dx":0.0017,"nx":28,"ny":28,"refTime":"2024-08-02T21:00:00:Z","depth":0,"parameterNumber":3,"parameterNumberName":"V-component_of_WINDS"},"data":[0,0,0,0,0,0,0,0,0,0,0,0,0,0,0,0,0,0,0,0,0,0,0,0,0,0,0,0,0,0,0,0,0,0,0,0,0,0,0,0,0,0,0,0,0,0,0,0,0,0,0,0,0,0,0,0,0,0,-0.5471,-0.5471,0,-0.5494,-0.5494,-0.5494,-0.5495,-0.5495,-0.5495,-0.5495,-0.5518,-0.5518,-0.5519,0,0,0,0,0,0,0,0,0,0,0,0,0,-0.543,-0.5431,-0.5471,-0.5471,-0.5472,-0.5494,-0.5494,-0.5494,-0.5495,-0.5495,-0.5495,-0.5494,-0.5517,-0.5518,-0.5519,0,0,0,0,0,0,0,0,0,0,0,0,0,-0.545,-0.5431,-0.5471,-0.5475,-0.5476,-0.5493,-0.5494,-0.5494,-0.5495,-0.5495,-0.5495,-0.5494,-0.5517,-0.5518,-0.552,-0.5535,0,0,-0.5523,-0.5524,0,0,0,0,0,0,0,0,-0.5449,-0.5451,-0.5474,-0.5475,-0.5475,-0.5491,-0.5488,-0.5508,-0.5496,-0.5488,-0.5495,-0.5494,-0.5509,-0.5511,-0.5516,-0.5536,-0.5537,-0.5524,-0.5524,-0.5525,-0.5525,0,0,0,0,0,0,0,-0.5447,-0.545,-0.548,-0.5474,-0.5475,-0.5476,-0.5478,-0.5492,-0.55,-0.5489,-0.5489,-0.5491,-0.5509,-0.5515,-0.5517,-0.5538,-0.5524,-0.5525,-0.5525,-0.5526,-0.5572,-0.5573,0,0,0,0,0,0,-0.5445,-0.5449,-0.5479,-0.5481,-0.5461,-0.5477,-0.5479,-0.5487,-0.55,-0.5502,-0.5492,-0.5491,-0.5513,-0.5515,-0.5518,-0.5537,-0.5525,-0.5526,-0.5527,-0.5572,-0.5572,-0.5573,0,0,0,0,0,0,-0.5444,-0.5448,-0.5478,-0.5465,-0.5469,-0.5478,-0.5486,-0.5487,-0.5493,-0.5503,-0.5504,-0.5496,-0.5513,-0.5516,-0.5531,-0.5538,-0.5527,-0.5528,-0.5571,-0.5572,-0.5573,-0.5576,0,0,0,0,0,0,-0.5443,-0.5447,-0.5453,-0.5465,-0.547,-0.5491,-0.5486,-0.5488,-0.5495,-0.5495,-0.5507,-0.5508,-0.5513,-0.5529,-0.5532,-0.5539,-0.5529,-0.5571,-0.5572,-0.5573,-0.5575,-0.5577,-0.5578,0,0,0,0,0,-0.5441,-0.5453,-0.5453,-0.5457,-0.5477,-0.5492,-0.5494,-0.5499,-0.5495,-0.5501,-0.5508,-0.5508,-0.5537,-0.5531,-0.5534,-0.5542,-0.557,-0.5571,-0.5572,-0.5575,-0.5577,-0.5578,0,0,0,0,0,0,-0.5442,-0.5455,-0.5455,-0.5471,-0.548,-0.5492,-0.5499,-0.55,-0.5511,-0.551,-0.5516,-0.5518,-0.5534,-0.5539,-0.5532,-0.5558,-0.5553,-0.5555,-0.5554,-0.5555,-0.5557,-0.5555,-0.553,0,0,0,0,0,-0.5444,-0.5454,-0.5465,-0.5478,-0.5483,-0.549,-0.5497,-0.55,-0.5509,-0.5513,-0.5521,-0.553,-0.5542,-0.5549,-0.556,-0.5576,-0.5579,-0.5584,-0.5585,-0.5586,-0.5587,-0.5597,-0.5599,-0.5576,-0.5576,-0.5576,0,0,-0.5447,-0.5456,-0.5462,-0.5478,-0.5486,-0.5497,-0.5493,-0.5505,-0.5514,-0.5515,-0.553,-0.5536,-0.5547,-0.5563,-0.5571,-0.5568,-0.5595,-0.5587,-0.5588,-0.5589,-0.5599,-0.5601,-0.5603,-0.5577,-0.5577,-0.5577,0,0,-0.546,-0.5468,-0.5479,-0.5487,-0.5499,-0.5504,-0.5507,-0.5518,-0.5522,-0.5538,-0.5539,-0.5549,-0.5568,-0.5576,-0.5583,-0.56,-0.56,-0.5603,-0.561,-0.562,-0.5622,-0.5623,-0.563,-0.5632,-0.5605,-0.5605,-0.5605,0,-0.5464,-0.548,-0.5485,-0.5497,-0.5505,-0.5507,-0.5519,-0.5526,-0.554,-0.5546,-0.5543,-0.5567,-0.5575,-0.5593,-0.5598,-0.5603,-0.5606,-0.5602,-0.5621,-0.5623,-0.5624,-0.563,-0.5633,-0.5605,-0.5605,-0.5605,-0.5605,0,-0.5484,-0.5496,-0.5504,-0.5518,-0.5526,-0.5538,-0.5545,-0.5553,-0.5556,-0.5561,-0.5577,-0.5586,-0.5599,-0.5604,-0.5606,-0.5623,-0.5621,-0.562,-0.5615,-0.5627,-0.5632,-0.5635,-0.5605,-0.5605,-0.5605,-0.5605,0,0,-0.5497,-0.5515,-0.5518,-0.5524,-0.5537,-0.5547,-0.5559,-0.5572,-0.5579,-0.5589,-0.5599,-0.5616,-0.5615,-0.5622,-0.5626,-0.5634,-0.5648,-0.5632,-0.5632,-0.5635,-0.5667,-0.5668,-0.5671,-0.5648,-0.5649,-0.5649,-0.5666,0,-0.5512,-0.5534,-0.5539,-0.5558,-0.5569,-0.5572,-0.5583,-0.5592,-0.5598,-0.5608,-0.5615,-0.5627,-0.5624,-0.5629,-0.5637,-0.5644,-0.5654,-0.5643,-0.5659,-0.5659,-0.5656,-0.5674,-0.5675,-0.5691,-0.5669,-0.5669,-0.5669,0,-0.5532,-0.5542,-0.5563,-0.5575,-0.558,-0.5589,-0.5602,-0.5612,-0.5623,-0.5627,-0.5635,-0.5638,-0.5652,-0.5646,-0.5665,-0.5657,-0.5664,-0.5669,-0.5669,-0.5671,-0.5665,-0.5676,-0.5696,-0.5698,-0.5673,-0.5673,-0.5672,0,-0.554,-0.5559,-0.5574,-0.5579,-0.5594,-0.5601,-0.5607,-0.5618,-0.5626,-0.5637,-0.5642,-0.5655,-0.5661,-0.5671,-0.5678,-0.5673,-0.5696,-0.5691,-0.57,-0.57,-0.5705,-0.5704,-0.5726,-0.5709,-0.5709,-0.5709,-0.5709,0,-0.5555,-0.5568,-0.5578,-0.5587,-0.5601,-0.5607,-0.5621,-0.5627,-0.5637,-0.5647,-0.5651,-0.566,-0.5668,-0.5679,-0.5684,-0.57,-0.5703,-0.5706,-0.5707,-0.5706,-0.5706,-0.5711,-0.571,-0.5709,-0.5709,-0.5709,-0.5709,0,-0.5567,-0.5574,-0.559,-0.5603,-0.5606,-0.5616,-0.5627,-0.5636,-0.5642,-0.5656,-0.5659,-0.5669,-0.5682,-0.569,-0.5706,-0.571,-0.5727,-0.5728,-0.5723,-0.5724,-0.5732,-0.5732,-0.5758,-0.5762,-0.5742,-0.5742,-0.5742,0,-0.5576,-0.5586,-0.56,-0.5607,-0.5614,-0.5625,-0.5633,-0.564,-0.5648,-0.5662,-0.567,-0.5683,-0.5694,-0.5716,-0.5724,-0.5737,-0.5739,-0.5747,-0.574,-0.5739,-0.5739,-0.5739,-0.574,-0.5748,-0.5748,-0.5748,-0.5748,0,-0.5593,-0.5596,-0.5607,-0.562,-0.5629,-0.564,-0.565,-0.5656,-0.5664,-0.5674,-0.5687,-0.5696,-0.5714,-0.5727,-0.5741,-0.5748,-0.575,-0.5751,-0.5753,-0.5752,-0.5749,-0.5751,-0.5727,-0.575,-0.575,-0.575,-0.575,-0.5749,-0.5604,-0.5612,-0.5624,-0.5636,-0.5645,-0.5655,-0.5664,-0.5671,-0.5683,-0.5698,-0.5701,-0.5716,-0.5727,-0.5746,-0.5754,-0.5766,-0.5764,-0.5768,-0.5769,-0.577,-0.577,-0.5747,-0.5768,-0.5768,-0.5768,-0.5768,-0.5768,0,-0.562,-0.5628,-0.564,-0.5654,-0.5664,-0.5665,-0.5677,-0.5685,-0.5698,-0.5709,-0.572,-0.5736,-0.575,-0.576,-0.5774,-0.5781,-0.5782,-0.5785,-0.5784,-0.5786,-0.5771,-0.5767,-0.5783,-0.5783,-0.5783,-0.5783,-0.5783,-0.5783,-0.563,-0.5646,-0.565,-0.567,-0.5678,-0.5692,-0.5699,-0.5708,-0.5717,-0.5735,-0.5746,-0.5752,-0.5763,-0.5778,-0.579,-0.5793,-0.5798,-0.58,-0.5803,-0.5789,-0.5787,-0.5785,-0.5782,-0.5801,-0.5801,-0.5817,-0.5817,-0.5818]}]]